TimeCDT,TemperatureF,Dew PointF,Humidity,Sea Level PressureIn,VisibilityMPH,Wind Direction,Wind SpeedMPH,Gust SpeedMPH,PrecipitationIn,Events,Conditions,WindDirDegrees,DateUTC
12:15 AM,55.4,51.8,88,29.92,7.0,East,9.2,-,N/A,,Overcast,100,2012-10-23 05:15:00
12:35 AM,55.4,51.8,88,29.92,7.0,ESE,8.1,-,N/A,,Overcast,110,2012-10-23 05:35:00
1:15 AM,53.6,51.8,94,29.91,7.0,East,5.8,-,N/A,,Overcast,100,2012-10-23 06:15:00
1:35 AM,53.6,51.8,94,29.91,5.0,East,8.1,-,N/A,,Overcast,90,2012-10-23 06:35:00
1:55 AM,53.6,51.8,94,29.91,5.0,East,6.9,-,N/A,,Overcast,100,2012-10-23 06:55:00
2:15 AM,53.6,51.8,94,29.89,5.0,East,6.9,-,N/A,,Overcast,90,2012-10-23 07:15:00
2:55 AM,53.6,51.8,94,29.89,5.0,East,6.9,-,N/A,,Overcast,80,2012-10-23 07:55:00
3:15 AM,53.6,51.8,94,29.88,5.0,ENE,5.8,-,N/A,,Overcast,70,2012-10-23 08:15:00
3:35 AM,53.6,51.8,94,29.89,5.0,East,5.8,-,N/A,,Overcast,100,2012-10-23 08:35:00
3:55 AM,53.6,51.8,94,29.88,5.0,East,9.2,-,N/A,,Overcast,90,2012-10-23 08:55:00
4:15 AM,53.6,51.8,94,29.88,4.0,East,6.9,-,N/A,,Overcast,100,2012-10-23 09:15:00
4:35 AM,53.6,51.8,94,29.88,4.0,ESE,6.9,-,N/A,,Overcast,120,2012-10-23 09:35:00
5:15 AM,53.6,51.8,94,29.87,4.0,East,9.2,-,N/A,,Overcast,90,2012-10-23 10:15:00
5:35 AM,53.6,51.8,94,29.88,5.0,East,8.1,-,N/A,,Overcast,100,2012-10-23 10:35:00
5:55 AM,53.6,51.8,94,29.87,5.0,East,8.1,-,N/A,,Overcast,90,2012-10-23 10:55:00
6:35 AM,53.6,51.8,94,29.87,5.0,ESE,6.9,-,N/A,,Overcast,120,2012-10-23 11:35:00
6:55 AM,53.6,51.8,94,29.87,5.0,ESE,9.2,-,N/A,Thunderstorm,Overcast,110,2012-10-23 11:55:00
7:15 AM,53.6,51.8,94,29.88,5.0,ESE,8.1,-,N/A,,Overcast,110,2012-10-23 12:15:00
7:35 AM,53.6,51.8,94,29.87,4.0,ESE,5.8,-,N/A,,Overcast,110,2012-10-23 12:35:00
7:55 AM,53.6,51.8,94,29.87,5.0,ESE,6.9,-,N/A,,Overcast,110,2012-10-23 12:55:00
8:15 AM,53.6,51.8,94,29.88,4.0,ESE,6.9,-,N/A,,Overcast,120,2012-10-23 13:15:00
8:35 AM,53.6,51.8,94,29.88,5.0,ESE,6.9,-,N/A,,Overcast,120,2012-10-23 13:35:00
8:55 AM,53.6,51.8,94,29.88,5.0,ESE,8.1,-,N/A,,Overcast,120,2012-10-23 13:55:00
9:15 AM,53.6,51.8,94,29.87,5.0,ESE,10.4,-,N/A,,Overcast,120,2012-10-23 14:15:00
9:35 AM,53.6,51.8,94,29.87,5.0,East,9.2,-,N/A,,Overcast,100,2012-10-23 14:35:00
9:55 AM,53.6,51.8,94,29.87,5.0,ESE,8.1,11.5,N/A,,Overcast,110,2012-10-23 14:55:00
10:15 AM,55.4,51.8,88,29.87,5.0,ESE,8.1,-,N/A,,Overcast,110,2012-10-23 15:15:00
10:55 AM,55.4,51.8,88,29.87,5.0,East,4.6,-,N/A,,Overcast,90,2012-10-23 15:55:00
11:15 AM,55.4,53.6,94,29.87,5.0,ESE,3.5,-,N/A,,Overcast,110,2012-10-23 16:15:00
11:35 AM,55.4,53.6,94,29.87,5.0,ESE,4.6,-,N/A,,Overcast,110,2012-10-23 16:35:00
11:55 AM,55.4,53.6,94,29.86,5.0,East,5.8,-,N/A,,Overcast,100,2012-10-23 16:55:00
12:15 PM,57.2,53.6,88,29.86,5.0,ESE,5.8,-,N/A,,Overcast,110,2012-10-23 17:15:00
12:35 PM,59.0,53.6,82,29.85,5.0,ESE,5.8,-,N/A,,Overcast,110,2012-10-23 17:35:00
12:55 PM,59.0,53.6,82,29.84,7.0,ESE,6.9,-,N/A,,Overcast,120,2012-10-23 17:55:00
1:15 PM,59.0,55.4,88,29.83,7.0,ESE,6.9,-,N/A,,Overcast,110,2012-10-23 18:15:00
1:35 PM,59.0,55.4,88,29.82,7.0,ESE,5.8,-,N/A,,Overcast,120,2012-10-23 18:35:00
1:55 PM,60.8,55.4,82,29.81,7.0,ESE,8.1,-,N/A,,Overcast,110,2012-10-23 18:55:00
2:15 PM,60.8,55.4,82,29.80,10.0,ESE,8.1,-,N/A,,Overcast,120,2012-10-23 19:15:00
2:55 PM,60.8,57.2,88,29.79,7.0,ESE,6.9,-,N/A,,Overcast,110,2012-10-23 19:55:00
3:15 PM,62.6,57.2,82,29.78,7.0,ESE,6.9,-,N/A,,Overcast,110,2012-10-23 20:15:00
3:35 PM,62.6,57.2,82,29.78,7.0,ESE,4.6,-,N/A,,Overcast,110,2012-10-23 20:35:00
3:55 PM,62.6,59.0,88,29.78,7.0,SE,8.1,-,N/A,,Overcast,130,2012-10-23 20:55:00
4:15 PM,62.6,59.0,88,29.78,7.0,SE,6.9,-,N/A,,Overcast,130,2012-10-23 21:15:00
4:35 PM,62.6,59.0,88,29.78,7.0,ESE,8.1,-,N/A,,Overcast,120,2012-10-23 21:35:00
4:55 PM,62.6,59.0,88,29.78,7.0,ESE,9.2,-,N/A,,Overcast,120,2012-10-23 21:55:00
5:15 PM,62.6,59.0,88,29.79,7.0,East,6.9,-,N/A,,Overcast,100,2012-10-23 22:15:00
5:35 PM,62.6,59.0,88,29.79,7.0,ESE,9.2,-,N/A,,Overcast,120,2012-10-23 22:35:00
5:55 PM,62.6,59.0,88,29.79,7.0,ESE,9.2,-,N/A,,Overcast,120,2012-10-23 22:55:00
6:15 PM,62.6,59.0,88,29.79,7.0,SE,6.9,-,N/A,,Overcast,130,2012-10-23 23:15:00
6:35 PM,62.6,60.8,94,29.81,7.0,Calm,Calm,-,N/A,,Overcast,0,2012-10-23 23:35:00
6:55 PM,62.6,60.8,94,29.81,7.0,East,4.6,-,N/A,,Overcast,80,2012-10-23 23:55:00
7:15 PM,62.6,60.8,94,29.81,7.0,East,6.9,-,N/A,,Overcast,90,2012-10-24 00:15:00
7:35 PM,62.6,60.8,94,29.82,7.0,East,4.6,-,N/A,,Overcast,100,2012-10-24 00:35:00
7:55 PM,62.6,60.8,94,29.82,7.0,ESE,6.9,-,N/A,,Overcast,110,2012-10-24 00:55:00
8:15 PM,62.6,60.8,94,29.82,7.0,ESE,3.5,-,N/A,,Overcast,110,2012-10-24 01:15:00
8:35 PM,62.6,60.8,94,29.82,7.0,East,3.5,-,N/A,,Mostly Cloudy,90,2012-10-24 01:35:00
8:55 PM,62.6,60.8,94,29.81,7.0,ESE,4.6,-,N/A,,Mostly Cloudy,110,2012-10-24 01:55:00
9:15 PM,62.6,60.8,94,29.82,10.0,Calm,Calm,-,N/A,,Mostly Cloudy,0,2012-10-24 02:15:00
9:35 PM,64.4,60.8,88,29.83,10.0,Calm,Calm,-,N/A,,Mostly Cloudy,0,2012-10-24 02:35:00
9:55 PM,64.4,60.8,88,29.84,10.0,Calm,Calm,-,N/A,,Mostly Cloudy,0,2012-10-24 02:55:00
10:15 PM,64.4,60.8,88,29.84,10.0,Calm,Calm,-,N/A,,Mostly Cloudy,0,2012-10-24 03:15:00
10:35 PM,64.4,60.8,88,29.83,10.0,SE,5.8,-,N/A,,Mostly Cloudy,130,2012-10-24 03:35:00
10:55 PM,64.4,60.8,88,29.82,10.0,SE,6.9,-,N/A,,Mostly Cloudy,140,2012-10-24 03:55:00
11:15 PM,64.4,60.8,88,29.82,10.0,SSE,5.8,-,N/A,,Mostly Cloudy,150,2012-10-24 04:15:00
11:35 PM,64.4,60.8,88,29.82,10.0,SSE,4.6,-,N/A,,Overcast,160,2012-10-24 04:35:00
11:55 PM,64.4,60.8,88,29.83,10.0,Calm,Calm,-,N/A,,Mostly Cloudy,0,2012-10-24 04:55:00